Weather History for Kalispell, MT

Change the Weather History Date:

Tuesday, March 12, 2013

  Actual Average Record
Temperature  
Mean Temperature 32 °F 34 °F  
Max Temperature 36 °F 44 °F 62 °F (1934)
Min Temperature 27 °F 24 °F -14 °F (1969)
Degree Days  
Heating Degree Days 33 31  
Month to date heating degree days 368 396  
Since 1 July heating degree days 5655 6248  
Cooling Degree Days 0 0  
Month to date cooling degree days 0 0  
Year to date cooling degree days 0 0  
Moisture  
Dew Point 30 °F    
Average Humidity 88    
Maximum Humidity 100    
Minimum Humidity 75    
Precipitation  
Precipitation 0.21 in 0.04 in 0.25 in (1922)
Month to date precipitation 0.43 0.43  
Year to date precipitation 1.48 2.73  
Snow  
Snow T in - - ()
Month to date snowfall 0.8  
Year to date snowfall 8.3  
Since 1 July snowfall 17.1  
Snow Depth 0.00 in    
Sea Level Pressure  
Sea Level Pressure 30.14 in    
Wind  
Wind Speed 2 mph (SSW)    
Max Wind Speed 17 mph    
Max Gust Speed 21 mph    
Visibility 5 miles    
Events Rain , Snow    
T = Trace of Precipitation, MM = Missing Value Source: NWS Daily Summary

Daily Weather History Graph

Daily Weather History Graph

Search for Another Location

Airport:

Trip Planner

Search our weather history database for the weather conditions in past years. The results will help you decide how hot, cold, wet, or windy it might be!

Date:

Astronomy

Mar. 12, 2013 Rise Set
Actual Time 7:55 AM MDT 7:38 PM MDT
Civil Twilight 7:24 AM MDT 8:09 PM MDT
Nautical Twilight 6:48 AM MDT 8:45 PM MDT
Astronomical Twilight 6:11 AM MDT 9:22 PM MDT
Moon 7:57 AM MDT (3/12) 9:08 PM MDT (3/12)
Length of Visible Light 12h 44m
Length of Day
11h 42m
New Moon, 1% of the Moon is Illuminated
Mar 12
New Moon
Mar 19
First Quarter
Mar 27
Full
Apr 2
Last Quarter
Apr 10
New

Hourly Weather History & Observations

Time (MDT) Temp. Windchill Dew Point Humidity Pressure Visibility Wind Dir Wind Speed Gust Speed Precip Events Conditions
12:55 AM 28.0 °F - 23.0 °F 81% 30.25 in 10.0 mi Calm Calm - N/A   Clear
1:55 AM 28.0 °F - 21.0 °F 75% 30.25 in 10.0 mi Calm Calm - N/A   Clear
2:55 AM 28.0 °F - 23.0 °F 81% 30.24 in 10.0 mi Calm Calm - N/A   Scattered Clouds
3:55 AM 28.0 °F - 24.1 °F 85% 30.23 in 10.0 mi Calm Calm - N/A   Overcast
4:55 AM 28.9 °F - 21.9 °F 75% 30.21 in 10.0 mi Calm Calm - N/A   Overcast
5:55 AM 28.0 °F - 23.0 °F 81% 30.20 in 10.0 mi Calm Calm - N/A   Overcast
6:55 AM 28.9 °F - 24.1 °F 82% 30.20 in 10.0 mi Calm Calm - N/A   Overcast
7:55 AM 28.9 °F - 24.1 °F 82% 30.20 in 10.0 mi Calm Calm - N/A   Overcast
8:55 AM 30.9 °F - 24.1 °F 76% 30.20 in 10.0 mi Calm Calm - N/A   Overcast
9:44 AM 32.0 °F - 24.8 °F 75% 30.13 in 2.0 mi Calm Calm - 0.00 in Snow Light Snow
9:55 AM 30.9 °F 26.2 °F 25.0 °F 79% 30.21 in 2.0 mi South 4.6 mph - 0.00 in Snow Light Snow
10:02 AM 30.2 °F 25.4 °F 26.6 °F 86% 30.13 in 1.0 mi South 4.6 mph - 0.01 in Snow Light Snow
10:26 AM 30.2 °F 26.7 °F 28.4 °F 93% 30.12 in 0.8 mi South 3.5 mph - 0.02 in Snow Light Snow
10:35 AM 30.2 °F 26.7 °F 28.4 °F 93% 30.12 in 0.8 mi SSW 3.5 mph - 0.02 in Snow Light Snow
10:55 AM 30.9 °F 27.5 °F 30.0 °F 96% 30.20 in 0.8 mi SSW 3.5 mph - 0.04 in Snow Light Snow
11:55 AM 32.0 °F 24.2 °F 30.9 °F 96% 30.20 in 0.8 mi SSE 9.2 mph - 0.03 in Snow Light Snow
12:31 PM 33.8 °F 25.8 °F 30.2 °F 87% 30.10 in 1.0 mi SSE 10.4 mph - 0.02 in Snow Light Snow
12:55 PM 33.1 °F 25.5 °F 32.0 °F 96% 30.18 in 1.2 mi South 9.2 mph - 0.03 in Snow Light Snow
1:08 PM 33.8 °F 26.4 °F 32.0 °F 93% 30.09 in 1.5 mi South 9.2 mph - 0.00 in Snow Light Snow
1:25 PM 33.8 °F 27.7 °F 32.0 °F 93% 30.09 in 2.5 mi South 6.9 mph - 0.01 in Snow Light Snow
1:33 PM 33.8 °F 28.6 °F 32.0 °F 93% 30.09 in 3.0 mi South 5.8 mph - 0.01 in Snow Light Snow
1:41 PM 33.8 °F 28.6 °F 33.8 °F 100% 30.08 in 2.0 mi South 5.8 mph - 0.01 in Snow Light Snow
1:55 PM 34.0 °F 28.0 °F 33.1 °F 96% 30.16 in 2.0 mi SSW 6.9 mph - 0.02 in Snow Light Snow
2:35 PM 33.8 °F 28.6 °F 33.8 °F 100% 30.06 in 5.0 mi SSW 5.8 mph - 0.01 in Snow Light Snow
2:43 PM 33.8 °F 28.6 °F 32.0 °F 93% 30.06 in 3.0 mi SW 5.8 mph - 0.02 in Snow Light Snow
2:55 PM 33.1 °F 27.7 °F 32.0 °F 96% 30.15 in 3.0 mi SW 5.8 mph - 0.02 in Snow Light Snow
3:24 PM 33.8 °F 29.6 °F 33.8 °F 100% 30.05 in 5.0 mi SSW 4.6 mph - 0.02 in Rain Light Rain
3:55 PM 35.1 °F 30.1 °F 33.1 °F 92% 30.12 in 8.0 mi SSW 5.8 mph - 0.03 in Rain Light Rain
4:55 PM 35.1 °F 30.1 °F 34.0 °F 96% 30.12 in 4.0 mi WSW 5.8 mph - 0.02 in Rain Light Rain
5:52 PM 35.6 °F - 33.8 °F 93% 30.04 in 6.0 mi Calm Calm - 0.02 in Rain Light Rain
5:55 PM 36.0 °F - 34.0 °F 93% 30.12 in 6.0 mi Calm Calm - 0.02 in Rain Light Rain
6:08 PM 35.6 °F - 33.8 °F 93% 30.04 in 7.0 mi Calm Calm - 0.00 in   Overcast
6:55 PM 36.0 °F - 34.0 °F 93% 30.11 in 7.0 mi Calm Calm - 0.00 in   Overcast
7:55 PM 35.1 °F - 34.0 °F 96% 30.13 in 9.0 mi Calm Calm - N/A   Overcast
8:35 PM 35.6 °F - 33.8 °F 93% 30.05 in 8.0 mi Calm Calm - N/A   Overcast
8:55 PM 35.1 °F - 34.0 °F 96% 30.13 in 9.0 mi Calm Calm - N/A   Overcast
9:55 PM 34.0 °F 31.0 °F 33.1 °F 96% 30.15 in 6.0 mi North 3.5 mph - N/A   Overcast
10:28 PM 33.8 °F - 33.8 °F 100% 30.08 in 5.0 mi Calm Calm - N/A   Overcast
10:55 PM 34.0 °F - 33.1 °F 96% 30.17 in 4.0 mi Calm Calm - N/A   Overcast
11:55 PM 34.0 °F - 34.0 °F 100% 30.17 in 5.0 mi Calm Calm - N/A   Overcast